KE9LZ-9 Weather Reports


time (UTC)temp
C
wind
direction
speed
KPH
gust
KPH
rain 1hr
cm
rain 24hr
cm
rain mn
cm
humidity
%
barometer
mb
20260902103004 16 277 3.2 8.0 0.13 0.13 0.13 99 1016.6
20260902102004 16 265 1.6 8.0 0.08 0.08 0.08 97 1016.7
20260902100003 17 297 3.2 8.0 0.00 0.00 0.00 91 1015.8
20260902095004 17 285 3.2 4.8 0.00 0.00 0.00 90 1015.3
20260902094004 17 302 3.2 4.8 0.00 0.00 0.00 92 1014.8
20260902093004 16 320 3.2 4.8 0.00 0.00 0.00 95 1014.2
20260902092004 16 323 0.0 3.2 0.00 0.00 0.00 96 1014.2
20260902091004 16 8 0.0 1.6 0.00 0.00 0.00 96 1014.0
20260902090005 17 1 1.6 1.6 0.00 0.00 0.00 96 1013.7
20260902085004 17 341 1.6 1.6 0.00 0.00 0.00 95 1013.8
20260902084004 17 33 0.0 1.6 0.00 0.00 0.00 96 1013.6
20260902083004 16 55 0.0 3.2 0.00 0.00 0.00 94 1013.8
20260902082004 16 304 1.6 3.2 0.00 0.00 0.00 96 1013.9
20260902081004 16 337 1.6 1.6 0.00 0.00 0.00 95 1013.6
20260902080004 17 323 1.6 1.6 0.00 0.00 0.00 95 1013.3
20260902075003 17 348 1.6 1.6 0.00 0.00 0.00 94 1013.5
20260902074003 17 336 1.6 3.2 0.00 0.00 0.00 93 1013.3
20260902073003 18 321 1.6 4.8 0.00 0.00 0.00 91 1013.4
20260902072004 17 331 1.6 3.2 0.00 0.00 0.00 93 1013.4
20260902070005 17 343 1.6 3.2 0.00 0.00 0.00 95 1013.6
20260902065004 17 348 1.6 3.2 0.00 0.00 0.00 96 1013.8
20260902064004 17 334 1.6 3.2 0.00 0.00 0.00 95 1013.9
20260902063004 17 325 1.6 3.2 0.00 0.00 0.00 94 1013.8
20260902061004 17 324 1.6 3.2 0.00 0.00 0.00 94 1013.8
20260902055004 17 317 1.6 3.2 0.00 0.00 0.00 95 1013.8
20260902054004 17 308 1.6 3.2 0.00 0.00 0.00 94 1013.7
20260902052003 18 309 0.0 1.6 0.00 0.00 0.00 93 1013.5
20260902050007 18 346 0.0 1.6 0.00 0.00 0.00 91 1013.6
20260902044004 19 26 0.0 1.6 0.00 0.00 0.00 89 1013.4
20260902043003 20 7 0.0 1.6 0.00 0.00 0.00 90 1013.5
20260902042003 20 22 0.0 1.6 0.00 0.00 0.00 89 1013.5
20260902041003 20 11 0.0 1.6 0.00 0.00 0.00 90 1013.5
20260902040004 20 18 0.0 1.6 0.00 0.00 0.00 89 1013.3
20260902034003 20 5 0.0 1.6 0.00 0.00 0.00 89 1013.2
20260902033004 20 325 0.0 1.6 0.00 0.00 0.00 88 1013.2
20260902032004 20 326 0.0 1.6 0.00 0.00 0.00 90 1013.0
20260902030004 20 9 0.0 1.6 0.00 0.00 0.00 91 1012.9
20260902025004 20 0 0.0 1.6 0.00 0.00 0.00 90 1012.9
20260902024004 21 355 0.0 1.6 0.00 0.00 0.00 88 1012.9
20260902021004 22 316 0.0 3.2 0.00 0.00 0.00 82 1012.8
20260902015004 22 309 0.0 1.6 0.00 0.00 0.00 81 1012.8
20260902014004 23 316 0.0 1.6 0.00 0.00 0.00 81 1012.6
20260902013004 23 317 0.0 4.8 0.00 0.00 0.00 79 1012.5
20260902012004 23 51 0.0 1.6 0.00 0.00 0.00 79 1012.3
20260902005003 23 33 0.0 1.6 0.00 0.00 0.00 77 1012.0
20260902003004 25 342 0.0 0.0 0.00 0.00 0.00 72 1012.0
20260902002004 26 7 0.0 3.2 0.00 0.00 0.00 69 1012.1
20260902001003 26 333 0.0 1.6 0.00 0.00 0.00 67 1012.0
20260902000004 27 308 0.0 1.6 0.00 0.00 0.00 64 1012.0
20260901235004 28 316 1.6 4.8 0.00 0.00 0.00 61 1011.8
20260901233003 28 325 1.6 8.0 0.00 0.00 0.00 59 1012.0
20260901232004 29 300 3.2 8.0 0.00 0.00 0.00 57 1011.9
20260901231004 29 305 1.6 9.7 0.00 0.00 0.00 58 1012.0
20260901230004 29 341 1.6 8.0 0.00 0.00 0.00 60 1012.0
20260901225004 30 283 1.6 8.0 0.00 0.00 0.00 59 1012.0
20260901224004 29 294 1.6 4.8 0.00 0.00 0.00 60 1012.1
20260901223004 30 281 1.6 3.2 0.00 0.00 0.00 59 1012.0
20260901222004 31 287 1.6 9.7 0.00 0.00 0.00 54 1011.9
20260901221004 31 272 3.2 12.9 0.00 0.00 0.00 53 1011.9
20260901220004 31 289 3.2 9.7 0.00 0.00 0.00 52 1011.9
20260901215004 31 296 3.2 9.7 0.00 0.00 0.00 52 1012.0
20260901214004 30 276 3.2 9.7 0.00 0.00 0.00 54 1012.1
20260901213003 31 278 4.8 11.3 0.00 0.00 0.00 50 1011.8
20260901212004 32 314 6.4 12.9 0.00 0.00 0.00 48 1012.0
20260901210003 32 281 6.4 16.1 0.00 0.00 0.00 45 1012.2
20260901205004 32 297 3.2 14.5 0.00 0.00 0.00 47 1012.1
20260901202004 32 257 6.4 12.9 0.00 0.00 0.00 47 1012.3
20260901201004 32 266 4.8 12.9 0.00 0.00 0.00 44 1012.4
20260901200003 32 342 3.2 9.7 0.00 0.00 0.00 48 1012.4
20260901195004 33 262 1.6 9.7 0.00 0.00 0.00 48 1012.5
20260901194004 32 287 3.2 11.3 0.00 0.00 0.00 51 1012.5
20260901192004 31 228 4.8 12.9 0.00 0.00 0.00 49 1012.7
20260901191004 31 270 4.8 11.3 0.00 0.00 0.00 49 1013.0
20260901190003 31 270 4.8 14.5 0.00 0.00 0.00 47 1012.9
20260901185004 31 293 4.8 9.7 0.00 0.00 0.00 47 1012.9
20260901184004 31 268 3.2 11.3 0.00 0.00 0.00 48 1013.1
20260901183004 31 270 6.4 12.9 0.00 0.00 0.00 50 1013.2
20260901182004 31 288 4.8 8.0 0.00 0.00 0.00 51 1013.2
20260901181003 30 273 4.8 11.3 0.00 0.00 0.00 53 1013.4
20260901180004 30 297 3.2 20.9 0.00 0.00 0.00 51 1013.4
20260901175004 30 297 3.2 11.3 0.00 0.00 0.00 54 1013.6
20260901174004 30 282 3.2 12.9 0.00 0.00 0.00 55 1013.8
20260901173004 30 283 3.2 9.7 0.00 0.00 0.00 59 1013.9
20260901172004 30 301 1.6 8.0 0.00 0.00 0.00 59 1014.0
20260901171004 30 75 1.6 9.7 0.00 0.00 0.00 61 1014.3
20260901170004 29 271 4.8 9.7 0.00 0.00 0.00 60 1014.1
20260901165004 29 282 3.2 8.0 0.00 0.00 0.00 63 1014.2
20260901164004 29 128 3.2 8.0 0.00 0.00 0.00 64 1014.2
20260901162003 28 269 4.8 12.9 0.00 0.00 0.00 71 1014.7
20260901161004 28 271 1.6 11.3 0.00 0.00 0.00 73 1014.5
20260901160003 28 268 3.2 11.3 0.00 0.00 0.00 74 1014.5
20260901155003 28 245 3.2 4.8 0.00 0.00 0.00 73 1014.7
20260901154004 28 196 1.6 4.8 0.00 0.00 0.00 75 1014.6
20260901153004 27 121 3.2 8.0 0.00 0.00 0.00 80 1014.5
20260901152004 27 306 3.2 4.8 0.00 0.00 0.00 80 1014.5
20260901151004 27 269 4.8 4.8 0.00 0.00 0.00 81 1014.6
20260901150003 27 305 0.0 3.2 0.00 0.00 0.00 84 1014.6
20260901145003 27 96 0.0 3.2 0.00 0.00 0.00 82 1014.5
20260901144003 27 301 1.6 3.2 0.00 0.00 0.00 87 1014.6
20260901143004 27 293 0.0 3.2 0.00 0.00 0.00 86 1014.7
20260901142004 26 311 1.6 3.2 0.00 0.00 0.00 89 1014.6
20260901140004 23 335 1.6 3.2 0.00 0.00 0.00 96 1014.7
20260901135004 23 353 0.0 1.6 0.00 0.00 0.00 97 1014.7
20260901133003 21 317 0.0 3.2 0.00 0.00 0.00 99 1014.8
20260901132004 20 314 3.2 4.8 0.00 0.00 0.00 99 1014.9
20260901131004 20 352 0.0 3.2 0.00 0.00 0.00 99 1014.8
20260901130004 21 350 0.0 1.6 0.00 0.00 0.00 99 1014.9
20260901125004 20 8 0.0 1.6 0.00 0.00 0.00 99 1014.7
20260901123004 17 327 1.6 3.2 0.00 0.00 0.00 99 1014.5
20260901122004 17 334 1.6 3.2 0.00 0.00 0.00 99 1014.5
20260901120003 16 308 1.6 3.2 0.00 0.00 0.00 99 1014.3
20260901115003 16 336 1.6 3.2 0.00 0.00 0.00 99 1014.1
20260901114004 16 347 0.0 1.6 0.00 0.00 0.00 99 1014.0
20260901113004 16 14 0.0 1.6 0.00 0.00 0.00 99 1013.7
20260901112003 16 354 0.0 3.2 0.00 0.00 0.00 99 1013.9
20260901110003 17 358 1.6 3.2 0.00 0.00 0.00 99 1013.6
20260901105004 17 340 1.6 3.2 0.00 0.00 0.00 99 1013.6
20260901104003 17 324 1.6 1.6 0.00 0.00 0.00 99 1013.5